Location: Carbonear
(47.7333°N, 53.2500°W)
Time: 06:01:36
(UTC+00:00)

AO-27 - Pass Details

Date: 13 December 2022
Orbit: 784 x 798 km, 98.9° (Epoch: 28 January)

Event Time Altitude Azimuth Distance (km) Brightness Sun altitude
Exits shadow 21:42:54 16° 20° (NNE) 1,978 9.4 -19.5°
Drops below altitude 10° 21:44:18 10° 8° (N) 2,382 9.9 -19.7°
Sets 21:47:01 0° 355° (N) 3,316 10.8 -20.1°
